SCP
0 0 0 0 0 0 0 0 0 0 0 0 0 0 0 0 0 0 0 0 0 0 0 0 0 0 0 0 0 0 0 0 0 0 0 0 0 0 0 0 0 0 0 0 0 0 0 0 -0 -0 -0 -0 -0 0
0 0 0 0 0 0 0 0 0 0 0 0 0 0 0 0 0 0 0 0 0 0 0 0 0 -0 -0 -0 0 0 0 0 0 0 0 0 0 0 -0 -0 0 -0 0 0 0 0 0 0 -0 -0 -0 -0 0 0
0 0 0 0 0 0 0 0 0 0 0 0 0 0 0 0 0 0 0 0 0 0 0 0 0 0 0 0 -0 0 0 0 0 0 0 0 -0 0 -0 0 0 0 0 0 0 0 -0 0 0 -0 -0 -0 -0 0
0 0 0 0 0 0 0 0 0 0 0 0 0 0 0 0 0 0 0 0 0 0 0 0 0 0 0 0 -0 -0 0 0 0 0 0 0 0 0 0 0 0 0 0 0 0 -0 -0 0 -0 -0 -0 -0 -0 0
0 0 0 0 0 0 0 0 0 0 0 0 0 0 0 0 0 0 0 0 0 0 0 0 0 0 0 0 -0 -0 -0 0 0 0 0 0 0 -0 0 0 0 0 0 0 0 -0 -0 -0 -0 0 -0 -0 0 0
0 0 0 0 0 0 0 0 0 0 0 0 0 0 0 0 0 0 0 0 0 0 0 0 0 0 0 -0 0 -0 0 0 0 0 0 0 0 0 -0 0 0 0 0 0 0 -0 0 0 0 0 0 0 0 0
0 0 0 0 0 0 0 0 0 0 0 0 0 0 0 0 0 0 0 0 0 0 0 0 0 0 0 0 0 0 0 0 0 0 0 0 0 0 0 -0 -0 -0 -0 0 0 -0 -0 0 0 -0 0 0 0 0
0 0 0 0 0 0 0 0 0 0 0 0 0 0 0 0 0 0 0 0 0 0 0 0 0 0 0 0 0 0 0 0 0 0 0 0 0 0 0 0 -0 -0 -0 -0 0 0 -0 0 0 -0 0 0 0 0
0 0 0 0 0 0 0 0 0 0 0 0 0 0 0 0 0 0 0 0 0 0 0 0 0 0 0 0 0 0 0 0 0 0 0 0 0 0 0 0 0 -0 -0 -0 0 -0 0 0 -0 -0 -0 0 0 0
0 0 0 0 0 0 0 0 0 0 0 0 0 0 0 0 0 0 0 0 0 0 0 0 0 0 -0 0 0 0 0 0 0 0 0 0 0 -0 0 0 0 0 -0 -0 -0 0 -0 -0 -0 -0 0 0 0 0
0 0 0 0 0 0 0 0 0 0 0 0 0 0 0 0 0 0 0 0 0 0 0 0 0 0 0 0 0 0 0 0 0 0 0 0 0 -0 -0 -0 0 0 -0 -0 -0 -0 -0 0 0 -0 -0 -0 -0 0
0 0 0 0 0 0 0 0 0 0 0 0 0 0 0 0 0 0 0 0 0 0 0 0 0 0 0 0 0 0 0 0 0 0 0 0 0 0 0 0 -0 -0 0 -0 -0 -0 -0 0 -0 -0 -0 -0 -0 0
0 0 0 0 0 0 0 0 0 0 0 0 0 0 0 0 0 0 0 0 0 0 0 0 0 0 0 0 0 0 0 0 0 0 0 0 0 0 0 0 -0 -0 0 0 0 0 -0 -0 0 -0 -0 0 0 0
0 0 0 0 0 0 0 0 0 0 0 0 0 0 0 0 0 0 0 0 0 0 0 0 0 0 0 0 0 0 0 0 0 -0 -0 0 0 0 -0 -0 -0 -0 0 0 -0 0 -0 -0 0 0 0 0 0 0
0 0 0 0 0 0 0 0 0 0 0 0 0 0 0 0 0 0 0 0 0 0 0 0 0 0 0 0 0 0 0 -0 0 -0 0 0 0 0 -0 -0 -0 -0 0 0 -0 -0 0 0 0 0 0 0 0 0
0 0 0 0 0 0 0 0 0 0 0 0 0 0 0 0 0 0 0 0 0 0 0 0 0 0 0 0 0 0 0 0 0 0 0 0 0 0 -0 -0 -0 -0 0 0 -0 -0 -0 0 -0 0 0 0 0 0
0 0 0 0 0 0 0 0 0 0 0 0 0 0 0 0 0 0 0 0 0 0 0 0 0 0 0 0 0 0 0 0 0 0 0 0 0 -0 -0 -0 -0 -0 0 -0 -0 -0 -0 0 0 0 0 0 0 0
0 0 0 0 0 0 0 0 0 0 0 0 0 0 -0 -0 0 0 0 0 0 0 0 0 0 0 0 0 0 0 0 0 0 0 -0 0 -0 -0 -0 -0 0 -0 -0 -0 -0 -0 -0 -0 -0 -0 -0 0 0 0
0 0 -0 -0 0 0 0 0 0 0 0 0 0 0 0 0 0 0 0 0 0 0 0 0 0 0 0 0 0 0 0 0 0 0 -0 -0 -0 -0 -0 -0 -0 -0 -0 -0 -0 -0 -0 0 -0 -0 -0 -0 -0 -0
-0 -0 0 0 0 0 0 0 0 0 0 0 0 0 0 0 0 0 0 0 0 0 0 0 0 0 0 0 0 0 -0 -0 0 0 0 0 0 0 0 0 0 -0 -0 -0 -0 -0 0 0 -0 -0 -0 -0 -0 -0
0 0 0 0 0 0 -0 0 0 0 0 0 0 -0 -0 0 0 0 0 0 0 0 0 0 0 0 0 0 0 0 -0 -0 -0 0 0 0 0 0 0 0 0 0 0 -0 -0 -0 -0 0 0 0 0 0 -0 -0
0 0 0 0 0 0 0 0 0 0 0 0 -0 -0 0 0 0 0 0 0 0 0 0 0 0 0 0 0 0 0 0 0 0 0 0 0 0 0 0 0 0 0 0 -0 -0 -0 0 -0 -0 0 0 0 0 0
0 0 0 0 0 0 0 0 0 0 0 0 -0 -0 -0 0 0 0 0 0 0 0 0 0 0 0 0 0 0 0 0 0 0 0 0 0 0 0 0 0 0 0 0 0 -0 -0 -0 -0 -0 -0 -0 0 0 0
0 0 0 0 0 0 0 0 0 0 0 0 -0 -0 -0 -0 -0 0 0 0 0 0 0 0 0 0 0 0 0 0 0 0 0 0 0 0 0 0 0 0 0 0 0 0 0 -0 -0 -0 -0 -0 -0 -0 -0 0
-0 -0 0 0 0 0 0 0 0 0 0 0 0 0 0 0 0 0 -0 0 0 0 0 0 0 0 0 0 0 0 0 0 0 0 0 0 0 0 0 0 0 0 0 0 0 -0 -0 -0 -0 -0 -0 -0 -0 -0
0 0 0 0 0 0 0 0 0 0 0 0 0 0 0 0 0 0 0 -0 -0 0 0 0 0 0 0 0 0 0 0 0 0 0 0 0 0 0 0 0 0 0 0 0 0 0 -0 -0 -0 -0 -0 -0 -0 -0
0 0 0 0 0 0 0 0 0 0 -0 -0 -0 0 0 0 0 0 -0 -0 -0 -0 -0 0 0 0 0 0 0 0 0 0 0 0 0 0 0 0 0 0 0 0 0 0 0 0 0 0 0 -0 0 0 -0 -0
0 0 0 0 0 0 0 0 0 0 0 -0 -0 -0 -0 0 0 0 0 0 0 0 0 0 -0 0 0 0 0 0 0 0 0 0 0 0 0 0 0 0 0 0 0 0 0 0 0 0 0 0 0 -0 -0 -0
0 0 0 0 0 0 0 0 0 0 0 0 0 -0 0 0 -0 -0 -0 0 0 -0 0 0 0 -0 -0 0 0 0 0 0 0 0 0 0 0 0 0 0 0 0 0 0 0 0 0 0 0 0 0 0 0 0
0 0 0 0 0 0 0 0 0 0 0 0 0 0 0 0 0 0 0 0 0 0 0 0 0 0 0 0 0 0 0 0 0 0 0 0 0 0 0 0 0 0 0 0 0 0 0 0 0 0 0 0 0 0
0 0 0 0 0 0 0 0 0 0 0 0 0 0 0 0 0 0 0 0 0 0 0 0 0 0 0 0 0 0 0 0 0 0 0 0 0 0 0 0 0 0 0 0 0 0 0 0 0 0 0 0 0 0
0 0 0 0 0 0 0 0 0 0 0 0 0 0 0 0 0 0 0 0 0 0 0 0 0 0 0 0 0 0 0 0 0 0 0 0 0 0 0 0 0 0 0 0 0 0 0 0 0 0 0 0 0 0
0 0 0 0 0 0 0 0 0 0 0 0 0 0 0 0 0 0 0 0 0 0 0 0 0 0 0 0 0 0 0 0 0 0 0 0 0 0 0 0 0 0 0 0 0 0 0 0 0 0 0 0 0 0
Wind_Speed_500mb
47 47 47 51 56 57 59 62 61 55 49 43 39 35 30 23 16 22 27 25 32 28 49 49 40 23 18 13 6 17 19 1 6 8 6 5 5 7 9 12 15 8 11 5 6 7 5 16 20 4 13 42 46 25
49 50 50 53 56 58 56 58 55 51 48 44 41 36 31 25 18 17 29 24 27 40 49 71 82 76 74 65 36 12 12 11 6 4 1 4 5 6 10 8 7 7 8 8 4 7 23 36 34 46 49 52 34 37
47 50 50 54 58 58 58 56 53 49 46 43 42 39 32 26 18 22 30 28 31 35 47 30 26 6 3 8 25 19 17 13 9 8 2 3 9 3 6 6 7 10 7 6 12 8 25 45 39 38 48 31 46 55
47 48 53 55 59 60 56 53 52 48 46 44 42 39 36 28 25 23 33 31 26 18 10 17 14 44 47 38 35 45 34 9 12 8 7 4 6 12 5 9 8 9 17 18 11 20 42 16 48 27 34 46 43 27
45 49 53 58 61 59 55 52 49 47 46 43 41 38 36 33 27 25 32 36 36 29 9 26 62 7 12 11 21 44 58 49 20 7 6 5 8 7 7 4 10 6 10 6 6 38 29 31 47 34 35 50 49 38
45 50 56 59 58 55 53 51 50 48 45 42 40 36 32 27 21 17 9 5 9 31 9 7 16 16 16 19 14 32 41 39 26 9 8 9 10 6 5 5 11 14 22 20 12 42 34 32 29 34 32 58 62 63
50 54 59 58 55 54 52 51 50 48 45 43 42 39 32 24 19 16 9 8 10 6 8 10 10 9 15 4 5 12 23 18 19 10 10 7 7 11 4 8 8 20 17 16 26 30 32 36 39 36 36 45 51 62
54 58 58 55 53 53 51 50 50 48 47 45 40 31 23 22 19 27 12 21 15 15 10 6 8 9 2 2 5 10 11 17 15 8 6 8 5 5 7 12 13 13 14 20 24 21 21 31 42 40 35 38 46 61
56 56 55 53 52 50 48 48 49 50 44 39 28 11 9 5 11 7 10 13 30 19 8 7 5 6 6 0 1 8 9 7 8 5 6 5 4 9 9 11 5 8 10 16 18 22 30 38 43 43 41 40 39 53
53 52 51 49 49 45 43 42 46 48 39 32 14 2 6 6 12 17 6 8 18 18 13 8 11 7 7 4 4 4 4 3 4 7 7 7 8 27 18 14 6 4 12 17 19 27 33 39 41 44 40 31 31 36
47 46 46 45 43 41 37 35 39 44 33 25 18 7 12 14 11 7 8 9 16 8 13 11 19 14 10 9 6 6 2 2 5 2 3 4 5 7 8 16 5 6 9 17 16 12 21 26 33 31 34 36 34 31
42 42 40 40 39 34 28 28 35 39 39 37 28 25 15 6 8 8 7 5 9 7 10 8 9 18 8 13 6 5 4 2 6 5 4 5 7 8 10 11 10 11 7 14 15 16 22 28 36 33 32 30 28 25
41 41 36 36 36 29 26 32 31 36 41 11 6 8 7 7 9 11 11 8 7 9 6 2 4 6 9 12 7 4 5 6 5 3 5 7 4 7 16 17 10 14 8 10 14 18 22 25 35 39 31 31 30 28
38 39 35 32 34 29 29 35 36 36 19 5 7 10 10 10 12 12 11 1 1 6 13 22 11 8 10 8 5 6 3 2 3 4 7 4 7 14 17 15 10 13 8 7 13 17 19 27 35 38 36 31 29 28
33 33 27 20 23 30 41 43 38 32 9 8 8 11 12 16 14 11 12 10 11 15 18 17 11 5 4 3 4 3 6 6 6 6 5 5 9 19 26 23 14 14 11 7 10 15 17 25 33 38 40 36 35 32
30 29 18 26 30 34 36 38 34 15 8 9 13 11 17 17 15 10 5 12 12 12 24 10 5 3 6 3 7 10 6 8 5 6 11 7 14 21 22 23 15 13 12 7 5 10 14 21 28 32 37 40 40 40
24 19 25 29 35 38 30 30 7 7 9 9 10 15 24 30 29 25 13 18 28 15 5 4 6 6 4 3 6 7 7 4 11 18 19 14 12 21 24 19 25 22 21 14 13 11 14 20 22 26 35 36 38 40
21 21 23 27 34 34 21 4 5 8 11 14 13 17 11 22 31 35 32 27 12 6 8 4 4 6 4 5 3 2 8 11 30 32 29 24 11 19 25 20 23 22 18 15 17 15 17 19 19 25 27 31 33 35
22 23 23 20 21 22 9 4 5 9 11 21 24 28 26 31 37 38 36 28 22 15 11 10 8 5 3 1 10 21 19 14 36 45 38 23 17 15 15 21 24 25 17 18 14 12 17 17 18 20 22 24 28 31
15 12 17 19 17 8 6 8 8 12 11 16 31 25 28 36 43 40 38 32 16 9 9 6 5 11 15 20 24 26 25 26 32 32 25 18 14 15 16 22 30 28 22 23 21 19 17 18 18 19 20 22 24 28
10 20 21 13 2 7 6 8 8 11 18 15 25 38 34 25 20 15 9 7 6 8 7 12 21 27 32 30 24 30 29 26 29 27 32 26 18 13 19 23 27 32 31 32 30 30 25 22 21 21 20 21 21 25
18 22 14 13 5 1 6 6 12 23 12 21 26 17 17 14 12 10 21 8 8 9 11 22 33 32 32 31 33 30 36 28 23 28 25 30 25 21 20 22 37 39 36 38 36 35 33 28 25 24 24 23 21 22
13 12 5 6 4 2 9 13 7 7 6 17 28 13 6 10 16 26 8 15 11 31 30 32 31 30 30 31 32 35 41 42 35 24 21 22 24 23 32 24 32 43 43 40 40 42 38 33 30 26 26 24 22 21
4 3 3 5 4 6 11 6 6 8 8 11 8 11 13 12 21 6 7 12 35 47 50 49 43 43 41 41 44 47 53 45 41 34 22 18 16 13 24 26 19 29 42 38 44 44 45 41 39 33 27 26 25 20
4 2 2 3 3 4 6 5 6 4 7 15 6 7 6 14 5 8 6 23 40 49 51 52 52 46 44 47 50 43 41 47 41 36 35 29 17 14 16 23 31 27 32 37 44 46 48 47 48 43 37 31 23 18
4 4 5 3 2 4 5 7 4 10 11 5 5 12 10 6 8 9 8 32 40 43 47 45 47 45 43 41 47 52 41 40 27 31 31 28 21 9 6 9 20 28 35 38 39 44 50 49 52 50 45 39 32 25
2 2 5 7 5 6 9 10 13 6 6 5 6 8 6 6 7 6 22 33 39 40 37 37 36 38 34 34 41 47 39 24 35 19 27 37 35 28 20 7 5 18 27 33 37 40 44 50 49 50 48 45 40 33
5 4 5 3 6 9 6 7 5 4 4 6 13 5 4 5 6 13 18 31 31 32 34 32 30 31 31 34 40 42 50 38 15 21 22 40 48 37 29 23 11 5 12 21 32 31 32 38 40 42 50 50 47 42
6 5 4 12 7 7 8 8 6 5 3 4 3 4 6 6 7 12 20 24 26 27 33 38 39 36 37 32 35 43 46 51 56 62 64 58 53 56 39 31 24 16 11 12 25 32 31 29 35 46 49 54 56 49
5 9 4 4 5 5 7 13 13 14 11 2 5 11 12 12 22 14 14 23 28 30 32 33 38 45 47 50 44 42 47 48 49 49 49 50 51 42 38 36 27 18 11 11 10 18 26 27 25 21 37 45 50 59
8 8 6 9 8 10 13 19 23 19 18 12 18 15 19 14 11 30 29 27 26 26 30 34 38 44 47 48 50 49 50 49 45 41 37 36 31 43 43 37 27 16 11 7 5 7 10 20 23 26 30 47 50 47
18 16 9 5 6 16 24 6 7 8 9 8 6 13 16 8 5 14 38 28 25 27 29 28 31 37 37 31 33 37 39 43 47 49 49 45 45 34 33 38 46 40 17 8 3 4 6 3 7 20 29 43 56 53
11 13 14 7 5 5 6 13 6 4 5 5 7 9 10 8 7 8 19 28 27 25 22 22 22 25 30 31 31 32 32 34 35 39 43 47 48 47 43 43 39 36 41 34 17 10 8 4 1 9 16 22 33 44
Wind_Direction_500mb
322 321 326 324 325 326 328 328 326 326 327 328 327 325 325 319 302 282 285 263 275 265 279 273 272 252 261 224 237 311 320 255 297 17 359 358 300 325 299 296 307 312 315 315 276 282 308 333 329 308 293 301 295 293
318 318 323 322 323 325 328 328 327 326 324 322 321 324 323 316 291 257 285 295 274 274 270 284 288 284 263 256 252 255 283 297 275 294 274 294 289 275 309 308 339 311 328 297 262 287 278 298 272 281 291 292 284 298
313 318 321 324 324 325 326 326 327 326 324 321 319 319 318 317 301 265 279 297 294 284 293 284 290 290 128 307 220 214 237 237 229 225 276 262 268 281 298 299 284 282 317 266 285 277 290 308 308 289 304 325 297 294
313 319 323 325 323 323 326 327 326 324 322 320 318 318 316 306 295 277 270 267 271 281 276 283 285 298 295 276 245 237 232 248 260 242 217 243 259 207 251 277 281 273 319 312 270 287 314 301 320 335 327 322 320 331
316 321 322 323 322 322 325 327 325 325 324 322 320 318 313 310 300 285 284 280 255 231 267 290 308 22 315 292 234 224 229 239 266 261 221 237 245 252 232 272 260 284 317 318 300 309 315 316 332 1 349 340 350 12
314 317 319 321 322 323 325 326 326 326 324 323 320 316 310 305 303 311 308 203 2 230 262 291 301 299 323 325 238 218 222 236 229 240 229 243 248 231 272 238 272 287 303 296 288 315 321 348 343 349 352 358 3 20
314 315 317 321 321 322 325 324 322 323 322 320 316 308 300 284 260 238 231 271 323 169 248 279 280 271 313 334 109 168 200 210 224 239 227 239 250 212 264 277 316 334 337 347 354 355 355 357 345 344 0 5 359 19
309 312 316 319 319 322 324 322 321 322 323 320 318 309 299 279 250 264 295 255 215 206 244 266 277 294 289 241 146 177 189 210 225 245 249 236 221 229 255 247 292 330 1 12 11 15 5 358 7 9 11 17 1 7
305 311 315 317 319 323 324 322 323 325 330 325 324 320 284 261 200 255 263 287 230 208 269 239 264 291 326 239 203 199 202 230 226 236 247 193 179 233 227 198 227 346 18 355 2 358 12 14 9 11 15 17 7 4
305 310 313 317 319 323 326 324 327 330 339 334 329 277 240 212 260 289 249 205 180 210 234 254 226 264 305 343 292 242 216 254 246 216 213 221 256 263 269 199 178 37 17 12 7 0 2 10 11 10 16 13 9 2
307 309 314 316 319 323 324 329 327 339 346 360 343 294 279 274 287 233 241 214 190 219 218 235 233 234 239 223 246 226 265 227 266 127 256 276 266 270 229 201 198 115 34 29 27 21 12 9 14 12 19 17 16 15
307 312 316 315 317 320 331 322 329 334 341 320 298 300 303 260 236 239 218 221 200 241 204 205 221 207 223 209 221 216 262 210 250 346 222 254 257 258 193 179 163 138 54 51 28 17 7 8 16 23 18 18 22 25
311 316 317 314 314 315 312 313 321 324 328 315 248 250 230 221 235 221 216 199 206 201 177 285 232 239 191 203 217 215 231 241 315 254 252 235 223 250 176 167 152 141 108 56 41 22 10 9 15 21 24 24 31 34
314 321 326 317 310 304 306 316 330 329 331 282 254 249 218 210 226 212 226 273 42 330 350 313 259 237 157 186 175 219 180 216 264 249 248 253 215 185 187 168 137 136 116 68 53 34 27 15 17 21 26 31 36 40
314 322 325 328 329 315 313 320 321 319 276 261 244 242 237 239 259 270 277 273 299 298 299 298 269 216 113 269 224 138 184 230 228 240 245 284 171 168 174 190 167 148 159 114 59 50 38 24 24 29 34 38 44 53
317 331 338 330 316 314 317 315 315 302 233 237 238 272 292 297 296 298 313 299 306 323 314 243 260 278 198 211 191 212 184 222 254 234 267 302 184 175 179 178 167 164 158 137 90 61 64 46 37 44 41 40 47 55
325 339 333 329 324 321 322 313 291 233 245 247 254 269 273 281 281 288 303 306 319 310 252 204 240 230 146 165 223 196 192 246 290 306 311 309 246 195 174 164 167 166 168 169 157 121 89 66 58 54 48 42 49 57
334 338 335 329 332 340 340 332 272 259 256 267 271 304 293 282 287 293 293 300 303 274 271 291 290 209 230 231 256 289 243 317 331 326 314 307 281 213 210 214 190 174 173 180 166 137 97 78 75 72 58 47 47 56
341 339 338 337 345 341 328 310 270 279 274 290 282 295 295 295 293 297 293 292 298 277 274 289 252 224 251 0 335 348 344 303 314 315 309 297 264 241 221 201 197 193 185 191 178 151 126 106 90 83 77 62 59 64
347 349 338 324 311 334 307 290 284 281 284 301 303 314 318 299 292 290 288 284 271 207 208 244 2 16 338 320 311 303 296 279 293 305 294 296 274 244 221 204 200 201 194 187 183 183 167 138 119 110 101 92 76 74
29 355 347 340 33 211 275 303 287 278 298 296 298 314 305 304 295 301 333 358 103 33 20 10 347 338 331 330 339 339 317 293 275 274 284 291 304 247 231 210 205 202 204 198 194 198 191 168 145 132 127 116 104 97
356 348 9 14 41 327 276 265 266 286 287 280 302 306 287 295 314 356 337 71 65 31 4 346 349 347 343 347 355 1 358 343 294 279 278 273 267 259 272 241 216 212 211 206 203 207 201 186 169 150 144 132 122 114
341 22 8 10 16 293 278 307 278 281 286 314 322 300 308 324 339 339 60 37 45 20 18 12 1 5 6 8 9 9 6 7 2 342 307 285 275 262 255 248 234 221 216 211 207 209 206 199 187 172 156 146 138 135
78 99 58 21 353 294 311 275 271 290 291 332 310 314 320 310 319 34 60 35 3 14 18 18 25 20 17 15 12 14 11 357 356 8 355 322 297 287 252 249 247 237 222 231 207 209 208 202 195 190 180 163 152 147
160 103 92 313 239 298 273 286 286 300 326 325 282 289 327 317 323 59 59 1 358 5 7 9 18 24 12 10 8 4 10 7 359 359 353 349 332 280 255 236 227 232 219 215 207 209 203 204 199 198 194 184 173 163
94 184 154 190 235 242 308 303 297 325 309 282 286 341 344 307 31 47 30 356 351 359 2 4 6 6 12 12 5 6 1 8 23 30 16 11 8 346 306 280 244 223 212 206 218 215 211 207 205 202 200 195 188 183
115 242 215 228 247 293 284 277 280 274 272 291 327 327 329 24 50 34 349 358 358 6 15 15 10 9 13 15 23 22 13 18 40 35 28 63 65 60 46 6 262 212 214 215 208 211 219 214 211 212 210 205 200 197
210 221 221 172 249 245 247 262 262 254 265 295 324 7 40 39 16 338 343 2 12 15 17 14 16 20 21 24 26 25 30 32 28 30 28 36 41 54 73 72 75 180 217 214 210 213 207 215 215 228 221 222 213 207
214 209 230 276 259 224 228 234 255 242 258 269 321 41 90 88 10 358 16 17 23 22 25 22 28 29 31 32 31 31 31 33 40 46 41 35 23 10 9 24 57 89 118 178 195 197 202 218 227 225 223 229 219 213
211 186 209 256 246 242 238 225 248 251 244 228 180 121 106 90 58 50 30 31 31 32 35 32 30 31 27 27 29 33 35 35 38 35 31 28 22 18 14 9 13 33 84 115 175 198 203 204 214 224 220 220 227 216
167 176 213 226 250 248 282 295 300 276 261 266 200 180 153 147 75 39 37 34 29 28 32 32 29 28 25 25 26 28 29 30 33 34 31 28 28 28 29 28 32 21 358 313 118 181 210 224 235 234 224 220 231 229
183 200 201 238 267 297 311 285 281 197 165 143 117 135 137 126 93 21 19 21 26 29 28 26 23 22 24 29 35 37 34 30 33 36 36 34 32 31 23 24 29 32 30 32 62 134 165 199 257 245 244 237 231 228
203 215 219 236 259 283 312 317 268 141 90 82 80 96 95 95 87 38 17 22 25 24 22 20 17 23 27 29 32 32 31 29 29 32 33 35 35 34 34 35 36 35 36 41 52 71 72 93 262 271 266 261 255 254
Wind_Speed_850mb
47 47 47 51 56 57 59 62 61 55 49 43 39 35 30 23 16 22 27 25 32 28 49 49 40 23 18 13 6 17 19 1 6 8 6 5 5 7 9 12 15 8 11 5 6 7 5 16 20 4 13 42 46 25
49 50 50 53 56 58 56 58 55 51 48 44 41 36 31 25 18 17 29 24 27 40 49 71 82 76 74 65 36 12 12 11 6 4 1 4 5 6 10 8 7 7 8 8 4 7 23 36 34 46 49 52 34 37
47 50 50 54 58 58 58 56 53 49 46 43 42 39 32 26 18 22 30 28 31 35 47 30 26 6 3 8 25 19 17 13 9 8 2 3 9 3 6 6 7 10 7 6 12 8 25 45 39 38 48 31 46 55
47 48 53 55 59 60 56 53 52 48 46 44 42 39 36 28 25 23 33 31 26 18 10 17 14 44 47 38 35 45 34 9 12 8 7 4 6 12 5 9 8 9 17 18 11 20 42 16 48 27 34 46 43 27
45 49 53 58 61 59 55 52 49 47 46 43 41 38 36 33 27 25 32 36 36 29 9 26 62 7 12 11 21 44 58 49 20 7 6 5 8 7 7 4 10 6 10 6 6 38 29 31 47 34 35 50 49 38
45 50 56 59 58 55 53 51 50 48 45 42 40 36 32 27 21 17 9 5 9 31 9 7 16 16 16 19 14 32 41 39 26 9 8 9 10 6 5 5 11 14 22 20 12 42 34 32 29 34 32 58 62 63
50 54 59 58 55 54 52 51 50 48 45 43 42 39 32 24 19 16 9 8 10 6 8 10 10 9 15 4 5 12 23 18 19 10 10 7 7 11 4 8 8 20 17 16 26 30 32 36 39 36 36 45 51 62
54 58 58 55 53 53 51 50 50 48 47 45 40 31 23 22 19 27 12 21 15 15 10 6 8 9 2 2 5 10 11 17 15 8 6 8 5 5 7 12 13 13 14 20 24 21 21 31 42 40 35 38 46 61
56 56 55 53 52 50 48 48 49 50 44 39 28 11 9 5 11 7 10 13 30 19 8 7 5 6 6 0 1 8 9 7 8 5 6 5 4 9 9 11 5 8 10 16 18 22 30 38 43 43 41 40 39 53
53 52 51 49 49 45 43 42 46 48 39 32 14 2 6 6 12 17 6 8 18 18 13 8 11 7 7 4 4 4 4 3 4 7 7 7 8 27 18 14 6 4 12 17 19 27 33 39 41 44 40 31 31 36
47 46 46 45 43 41 37 35 39 44 33 25 18 7 12 14 11 7 8 9 16 8 13 11 19 14 10 9 6 6 2 2 5 2 3 4 5 7 8 16 5 6 9 17 16 12 21 26 33 31 34 36 34 31
42 42 40 40 39 34 28 28 35 39 39 37 28 25 15 6 8 8 7 5 9 7 10 8 9 18 8 13 6 5 4 2 6 5 4 5 7 8 10 11 10 11 7 14 15 16 22 28 36 33 32 30 28 25
41 41 36 36 36 29 26 32 31 36 41 11 6 8 7 7 9 11 11 8 7 9 6 2 4 6 9 12 7 4 5 6 5 3 5 7 4 7 16 17 10 14 8 10 14 18 22 25 35 39 31 31 30 28
38 39 35 32 34 29 29 35 36 36 19 5 7 10 10 10 12 12 11 1 1 6 13 22 11 8 10 8 5 6 3 2 3 4 7 4 7 14 17 15 10 13 8 7 13 17 19 27 35 38 36 31 29 28
33 33 27 20 23 30 41 43 38 32 9 8 8 11 12 16 14 11 12 10 11 15 18 17 11 5 4 3 4 3 6 6 6 6 5 5 9 19 26 23 14 14 11 7 10 15 17 25 33 38 40 36 35 32
30 29 18 26 30 34 36 38 34 15 8 9 13 11 17 17 15 10 5 12 12 12 24 10 5 3 6 3 7 10 6 8 5 6 11 7 14 21 22 23 15 13 12 7 5 10 14 21 28 32 37 40 40 40
24 19 25 29 35 38 30 30 7 7 9 9 10 15 24 30 29 25 13 18 28 15 5 4 6 6 4 3 6 7 7 4 11 18 19 14 12 21 24 19 25 22 21 14 13 11 14 20 22 26 35 36 38 40
21 21 23 27 34 34 21 4 5 8 11 14 13 17 11 22 31 35 32 27 12 6 8 4 4 6 4 5 3 2 8 11 30 32 29 24 11 19 25 20 23 22 18 15 17 15 17 19 19 25 27 31 33 35
22 23 23 20 21 22 9 4 5 9 11 21 24 28 26 31 37 38 36 28 22 15 11 10 8 5 3 1 10 21 19 14 36 45 38 23 17 15 15 21 24 25 17 18 14 12 17 17 18 20 22 24 28 31
15 12 17 19 17 8 6 8 8 12 11 16 31 25 28 36 43 40 38 32 16 9 9 6 5 11 15 20 24 26 25 26 32 32 25 18 14 15 16 22 30 28 22 23 21 19 17 18 18 19 20 22 24 28
10 20 21 13 2 7 6 8 8 11 18 15 25 38 34 25 20 15 9 7 6 8 7 12 21 27 32 30 24 30 29 26 29 27 32 26 18 13 19 23 27 32 31 32 30 30 25 22 21 21 20 21 21 25
18 22 14 13 5 1 6 6 12 23 12 21 26 17 17 14 12 10 21 8 8 9 11 22 33 32 32 31 33 30 36 28 23 28 25 30 25 21 20 22 37 39 36 38 36 35 33 28 25 24 24 23 21 22
13 12 5 6 4 2 9 13 7 7 6 17 28 13 6 10 16 26 8 15 11 31 30 32 31 30 30 31 32 35 41 42 35 24 21 22 24 23 32 24 32 43 43 40 40 42 38 33 30 26 26 24 22 21
4 3 3 5 4 6 11 6 6 8 8 11 8 11 13 12 21 6 7 12 35 47 50 49 43 43 41 41 44 47 53 45 41 34 22 18 16 13 24 26 19 29 42 38 44 44 45 41 39 33 27 26 25 20
4 2 2 3 3 4 6 5 6 4 7 15 6 7 6 14 5 8 6 23 40 49 51 52 52 46 44 47 50 43 41 47 41 36 35 29 17 14 16 23 31 27 32 37 44 46 48 47 48 43 37 31 23 18
4 4 5 3 2 4 5 7 4 10 11 5 5 12 10 6 8 9 8 32 40 43 47 45 47 45 43 41 47 52 41 40 27 31 31 28 21 9 6 9 20 28 35 38 39 44 50 49 52 50 45 39 32 25
2 2 5 7 5 6 9 10 13 6 6 5 6 8 6 6 7 6 22 33 39 40 37 37 36 38 34 34 41 47 39 24 35 19 27 37 35 28 20 7 5 18 27 33 37 40 44 50 49 50 48 45 40 33
5 4 5 3 6 9 6 7 5 4 4 6 13 5 4 5 6 13 18 31 31 32 34 32 30 31 31 34 40 42 50 38 15 21 22 40 48 37 29 23 11 5 12 21 32 31 32 38 40 42 50 50 47 42
6 5 4 12 7 7 8 8 6 5 3 4 3 4 6 6 7 12 20 24 26 27 33 38 39 36 37 32 35 43 46 51 56 62 64 58 53 56 39 31 24 16 11 12 25 32 31 29 35 46 49 54 56 49
5 9 4 4 5 5 7 13 13 14 11 2 5 11 12 12 22 14 14 23 28 30 32 33 38 45 47 50 44 42 47 48 49 49 49 50 51 42 38 36 27 18 11 11 10 18 26 27 25 21 37 45 50 59
8 8 6 9 8 10 13 19 23 19 18 12 18 15 19 14 11 30 29 27 26 26 30 34 38 44 47 48 50 49 50 49 45 41 37 36 31 43 43 37 27 16 11 7 5 7 10 20 23 26 30 47 50 47
18 16 9 5 6 16 24 6 7 8 9 8 6 13 16 8 5 14 38 28 25 27 29 28 31 37 37 31 33 37 39 43 47 49 49 45 45 34 33 38 46 40 17 8 3 4 6 3 7 20 29 43 56 53
11 13 14 7 5 5 6 13 6 4 5 5 7 9 10 8 7 8 19 28 27 25 22 22 22 25 30 31 31 32 32 34 35 39 43 47 48 47 43 43 39 36 41 34 17 10 8 4 1 9 16 22 33 44
Wind_Direction_850mb
322 321 326 324 325 326 328 328 326 326 327 328 327 325 325 319 302 282 285 263 275 265 279 273 272 252 261 224 237 311 320 255 297 17 359 358 300 325 299 296 307 312 315 315 276 282 308 333 329 308 293 301 295 293
318 318 323 322 323 325 328 328 327 326 324 322 321 324 323 316 291 257 285 295 274 274 270 284 288 284 263 256 252 255 283 297 275 294 274 294 289 275 309 308 339 311 328 297 262 287 278 298 272 281 291 292 284 298
313 318 321 324 324 325 326 326 327 326 324 321 319 319 318 317 301 265 279 297 294 284 293 284 290 290 128 307 220 214 237 237 229 225 276 262 268 281 298 299 284 282 317 266 285 277 290 308 308 289 304 325 297 294
313 319 323 325 323 323 326 327 326 324 322 320 318 318 316 306 295 277 270 267 271 281 276 283 285 298 295 276 245 237 232 248 260 242 217 243 259 207 251 277 281 273 319 312 270 287 314 301 320 335 327 322 320 331
316 321 322 323 322 322 325 327 325 325 324 322 320 318 313 310 300 285 284 280 255 231 267 290 308 22 315 292 234 224 229 239 266 261 221 237 245 252 232 272 260 284 317 318 300 309 315 316 332 1 349 340 350 12
314 317 319 321 322 323 325 326 326 326 324 323 320 316 310 305 303 311 308 203 2 230 262 291 301 299 323 325 238 218 222 236 229 240 229 243 248 231 272 238 272 287 303 296 288 315 321 348 343 349 352 358 3 20
314 315 317 321 321 322 325 324 322 323 322 320 316 308 300 284 260 238 231 271 323 169 248 279 280 271 313 334 109 168 200 210 224 239 227 239 250 212 264 277 316 334 337 347 354 355 355 357 345 344 0 5 359 19
309 312 316 319 319 322 324 322 321 322 323 320 318 309 299 279 250 264 295 255 215 206 244 266 277 294 289 241 146 177 189 210 225 245 249 236 221 229 255 247 292 330 1 12 11 15 5 358 7 9 11 17 1 7
305 311 315 317 319 323 324 322 323 325 330 325 324 320 284 261 200 255 263 287 230 208 269 239 264 291 326 239 203 199 202 230 226 236 247 193 179 233 227 198 227 346 18 355 2 358 12 14 9 11 15 17 7 4
305 310 313 317 319 323 326 324 327 330 339 334 329 277 240 212 260 289 249 205 180 210 234 254 226 264 305 343 292 242 216 254 246 216 213 221 256 263 269 199 178 37 17 12 7 0 2 10 11 10 16 13 9 2
307 309 314 316 319 323 324 329 327 339 346 360 343 294 279 274 287 233 241 214 190 219 218 235 233 234 239 223 246 226 265 227 266 127 256 276 266 270 229 201 198 115 34 29 27 21 12 9 14 12 19 17 16 15
307 312 316 315 317 320 331 322 329 334 341 320 298 300 303 260 236 239 218 221 200 241 204 205 221 207 223 209 221 216 262 210 250 346 222 254 257 258 193 179 163 138 54 51 28 17 7 8 16 23 18 18 22 25
311 316 317 314 314 315 312 313 321 324 328 315 248 250 230 221 235 221 216 199 206 201 177 285 232 239 191 203 217 215 231 241 315 254 252 235 223 250 176 167 152 141 108 56 41 22 10 9 15 21 24 24 31 34
314 321 326 317 310 304 306 316 330 329 331 282 254 249 218 210 226 212 226 273 42 330 350 313 259 237 157 186 175 219 180 216 264 249 248 253 215 185 187 168 137 136 116 68 53 34 27 15 17 21 26 31 36 40
314 322 325 328 329 315 313 320 321 319 276 261 244 242 237 239 259 270 277 273 299 298 299 298 269 216 113 269 224 138 184 230 228 240 245 284 171 168 174 190 167 148 159 114 59 50 38 24 24 29 34 38 44 53
317 331 338 330 316 314 317 315 315 302 233 237 238 272 292 297 296 298 313 299 306 323 314 243 260 278 198 211 191 212 184 222 254 234 267 302 184 175 179 178 167 164 158 137 90 61 64 46 37 44 41 40 47 55
325 339 333 329 324 321 322 313 291 233 245 247 254 269 273 281 281 288 303 306 319 310 252 204 240 230 146 165 223 196 192 246 290 306 311 309 246 195 174 164 167 166 168 169 157 121 89 66 58 54 48 42 49 57
334 338 335 329 332 340 340 332 272 259 256 267 271 304 293 282 287 293 293 300 303 274 271 291 290 209 230 231 256 289 243 317 331 326 314 307 281 213 210 214 190 174 173 180 166 137 97 78 75 72 58 47 47 56
341 339 338 337 345 341 328 310 270 279 274 290 282 295 295 295 293 297 293 292 298 277 274 289 252 224 251 0 335 348 344 303 314 315 309 297 264 241 221 201 197 193 185 191 178 151 126 106 90 83 77 62 59 64
347 349 338 324 311 334 307 290 284 281 284 301 303 314 318 299 292 290 288 284 271 207 208 244 2 16 338 320 311 303 296 279 293 305 294 296 274 244 221 204 200 201 194 187 183 183 167 138 119 110 101 92 76 74
29 355 347 340 33 211 275 303 287 278 298 296 298 314 305 304 295 301 333 358 103 33 20 10 347 338 331 330 339 339 317 293 275 274 284 291 304 247 231 210 205 202 204 198 194 198 191 168 145 132 127 116 104 97
356 348 9 14 41 327 276 265 266 286 287 280 302 306 287 295 314 356 337 71 65 31 4 346 349 347 343 347 355 1 358 343 294 279 278 273 267 259 272 241 216 212 211 206 203 207 201 186 169 150 144 132 122 114
341 22 8 10 16 293 278 307 278 281 286 314 322 300 308 324 339 339 60 37 45 20 18 12 1 5 6 8 9 9 6 7 2 342 307 285 275 262 255 248 234 221 216 211 207 209 206 199 187 172 156 146 138 135
78 99 58 21 353 294 311 275 271 290 291 332 310 314 320 310 319 34 60 35 3 14 18 18 25 20 17 15 12 14 11 357 356 8 355 322 297 287 252 249 247 237 222 231 207 209 208 202 195 190 180 163 152 147
160 103 92 313 239 298 273 286 286 300 326 325 282 289 327 317 323 59 59 1 358 5 7 9 18 24 12 10 8 4 10 7 359 359 353 349 332 280 255 236 227 232 219 215 207 209 203 204 199 198 194 184 173 163
94 184 154 190 235 242 308 303 297 325 309 282 286 341 344 307 31 47 30 356 351 359 2 4 6 6 12 12 5 6 1 8 23 30 16 11 8 346 306 280 244 223 212 206 218 215 211 207 205 202 200 195 188 183
115 242 215 228 247 293 284 277 280 274 272 291 327 327 329 24 50 34 349 358 358 6 15 15 10 9 13 15 23 22 13 18 40 35 28 63 65 60 46 6 262 212 214 215 208 211 219 214 211 212 210 205 200 197
210 221 221 172 249 245 247 262 262 254 265 295 324 7 40 39 16 338 343 2 12 15 17 14 16 20 21 24 26 25 30 32 28 30 28 36 41 54 73 72 75 180 217 214 210 213 207 215 215 228 221 222 213 207
214 209 230 276 259 224 228 234 255 242 258 269 321 41 90 88 10 358 16 17 23 22 25 22 28 29 31 32 31 31 31 33 40 46 41 35 23 10 9 24 57 89 118 178 195 197 202 218 227 225 223 229 219 213
211 186 209 256 246 242 238 225 248 251 244 228 180 121 106 90 58 50 30 31 31 32 35 32 30 31 27 27 29 33 35 35 38 35 31 28 22 18 14 9 13 33 84 115 175 198 203 204 214 224 220 220 227 216
167 176 213 226 250 248 282 295 300 276 261 266 200 180 153 147 75 39 37 34 29 28 32 32 29 28 25 25 26 28 29 30 33 34 31 28 28 28 29 28 32 21 358 313 118 181 210 224 235 234 224 220 231 229
183 200 201 238 267 297 311 285 281 197 165 143 117 135 137 126 93 21 19 21 26 29 28 26 23 22 24 29 35 37 34 30 33 36 36 34 32 31 23 24 29 32 30 32 62 134 165 199 257 245 244 237 231 228
203 215 219 236 259 283 312 317 268 141 90 82 80 96 95 95 87 38 17 22 25 24 22 20 17 23 27 29 32 32 31 29 29 32 33 35 35 34 34 35 36 35 36 41 52 71 72 93 262 271 266 261 255 254